Heath, OH

5:59 PM EST on February 23, 2017 (GMT -0500)
Newark Heath

Weather History for KVTA - August, 2014

Change the Weather History Date:

Wednesday, August 20, 2014

  Actual Average Record
Temperature  
Mean Temperature 74 °F -  
Max Temperature 84 °F 80 °F 100 °F (1983)
Min Temperature 66 °F 59 °F 46 °F (1943)
Cooling Degree Days 9    
Growing Degree Days 24 (Base 50)    
Moisture  
Dew Point 68 °F    
Average Humidity 84    
Maximum Humidity 97    
Minimum Humidity 60    
Precipitation  
Precipitation 0.10 in - - ()
Sea Level Pressure  
Sea Level Pressure 29.92 in    
Wind  
Wind Speed 4 mph (SW)    
Max Wind Speed 10 mph    
Max Gust Speed 18 mph    
Visibility 6 miles    
Events Fog , Rain , Thunderstorm    
Averages and records for this station are not official NWS values.
T = Trace of Precipitation, MM = Missing Value Source: NWS Daily Summary

Daily Weather History Graph

Daily Weather History Graph

Search for Another Location

Airport or City:

Trip Planner

Search our weather history database for the weather conditions in past years. The results will help you decide how hot, cold, wet, or windy it might be!

Date:

Astronomy

Aug. 20, 2014 Rise Set
Actual Time 6:46 AM EDT 8:19 PM EDT
Civil Twilight 6:17 AM EDT 8:48 PM EDT
Nautical Twilight 5:43 AM EDT 9:22 PM EDT
Astronomical Twilight 5:06 AM EDT 9:58 PM EDT
Moon 2:25 AM EDT (8/20) 5:03 PM EDT (8/20)
Length of Visible Light 14h 30m
Length of Day
13h 33m
Waning Crescent, 21% of the Moon is Illuminated
Aug 20
Waning Crescent
Aug 25
New
Sep 2
First Quarter
Sep 8
Full
Sep 15
Last Quarter

Hourly Weather History & Observations

Time (EDT) Temp. Heat Index Dew Point Humidity Pressure Visibility Wind Dir Wind Speed Gust Speed Precip Events Conditions
12:54 AM 73.0 °F - 70.0 °F 90% 29.83 in 5.0 mi SW 3.5 mph - N/A   Partly Cloudy
1:54 AM 72.0 °F - 69.1 °F 91% 29.82 in 4.0 mi Calm Calm - N/A   Partly Cloudy
2:54 AM 71.1 °F - 69.1 °F 93% 29.80 in 4.0 mi Calm Calm - N/A   Clear
3:54 AM 71.1 °F - 69.1 °F 93% 29.81 in 3.0 mi Calm Calm - N/A   Mostly Cloudy
4:07 AM 71.1 °F - 69.1 °F 93% 29.84 in 2.5 mi Calm Calm - N/A   Overcast
4:54 AM 73.0 °F - 69.1 °F 87% 29.81 in 5.0 mi SSW 8.1 mph - 0.00 in Rain Light Rain
5:09 AM 73.0 °F - 69.1 °F 87% 29.85 in 5.0 mi SW 9.2 mph - 0.01 in Rain , Thunderstorm Light Rain
5:30 AM 72.0 °F - 69.1 °F 91% 29.86 in 6.0 mi West 8.1 mph - 0.03 in Rain Light Rain
5:54 AM 72.0 °F - 69.1 °F 91% 29.84 in 5.0 mi Calm Calm - 0.03 in   Scattered Clouds
6:54 AM 69.1 °F - 66.0 °F 90% 29.86 in 8.0 mi East 3.5 mph - N/A   Clear
7:04 AM 69.1 °F - 66.0 °F 90% 29.88 in 6.0 mi Calm Calm - N/A   Partly Cloudy
7:54 AM 70.0 °F - 66.0 °F 87% 29.87 in 5.0 mi SSW 5.8 mph - N/A   Partly Cloudy
8:54 AM 71.1 °F - 66.0 °F 84% 29.90 in 10.0 mi SSW 5.8 mph - N/A   Clear
9:54 AM 73.0 °F - 66.0 °F 79% 29.91 in 10.0 mi WSW 6.9 mph - N/A   Scattered Clouds
10:29 AM 73.9 °F - 64.9 °F 73% 29.93 in 10.0 mi WSW 4.6 mph - N/A   Mostly Cloudy
10:54 AM 75.0 °F - 66.0 °F 73% 29.92 in 10.0 mi SSW 6.9 mph - N/A   Mostly Cloudy
11:11 AM 75.9 °F - 66.0 °F 71% 29.93 in 10.0 mi SW 5.8 mph - N/A   Scattered Clouds
11:22 AM 77.0 °F - 66.9 °F 71% 29.94 in 10.0 mi SSW 8.1 mph - N/A   Mostly Cloudy
11:50 AM 77.0 °F - 66.2 °F 69% 29.94 in 10.0 mi Variable 6.9 mph - N/A   Scattered Clouds
11:54 AM 78.1 °F - 68.0 °F 71% 29.92 in 10.0 mi SW 6.9 mph - N/A   Mostly Cloudy
12:54 PM 79.0 °F - 68.0 °F 69% 29.92 in 10.0 mi South 9.2 mph - N/A   Partly Cloudy
1:23 PM 80.1 °F 82.7 °F 68.0 °F 67% 29.94 in 10.0 mi SSW 9.2 mph - N/A   Mostly Cloudy
1:47 PM 80.1 °F 82.9 °F 69.1 °F 69% 29.95 in 10.0 mi SSW 9.2 mph 18.4 mph N/A   Scattered Clouds
1:54 PM 81.0 °F 84.1 °F 69.1 °F 67% 29.92 in 10.0 mi South 9.2 mph - N/A   Scattered Clouds
2:54 PM 80.1 °F 82.9 °F 69.1 °F 69% 29.92 in 10.0 mi SW 10.4 mph - N/A   Mostly Cloudy
3:54 PM 82.0 °F 84.9 °F 68.0 °F 62% 29.90 in 10.0 mi Variable 4.6 mph - 0.00 in   Mostly Cloudy
4:54 PM 82.9 °F 85.8 °F 68.0 °F 60% 29.90 in 10.0 mi WSW 5.8 mph - N/A   Mostly Cloudy
5:54 PM 73.9 °F - 68.0 °F 82% 29.91 in 7.0 mi Variable 5.8 mph - 0.07 in Rain , Thunderstorm Light Rain
6:11 PM 75.9 °F - 70.0 °F 82% 29.93 in 10.0 mi Calm Calm - 0.00 in   Mostly Cloudy
6:54 PM 79.0 °F - 72.0 °F 79% 29.91 in 10.0 mi Calm Calm - 0.00 in   Clear
7:54 PM 75.0 °F - 72.0 °F 90% 29.91 in 10.0 mi Calm Calm - N/A   Clear
8:54 PM 70.0 °F - 68.0 °F 93% 29.94 in 4.0 mi Calm Calm - N/A   Clear
8:57 PM 71.1 °F - 69.1 °F 93% 29.95 in 1.8 mi Calm Calm - N/A   Clear
9:08 PM 71.1 °F - 69.1 °F 93% 29.96 in 0.8 mi Calm Calm - N/A   Clear
9:42 PM 70.0 °F - 68.0 °F 93% 29.97 in 0.2 mi Calm Calm - N/A Fog Fog
9:54 PM 69.1 °F - 68.0 °F 96% 29.96 in 2.0 mi Calm Calm - N/A   Clear
10:02 PM 69.1 °F - 68.0 °F 96% 29.98 in 5.0 mi Calm Calm - N/A   Clear
10:09 PM 69.1 °F - 66.9 °F 93% 29.98 in 1.0 mi Calm Calm - N/A   Mist
10:38 PM 68.0 °F - 66.0 °F 93% 29.99 in 0.5 mi West 3.5 mph - N/A Fog Fog
10:54 PM 68.0 °F - 66.0 °F 93% 29.98 in 2.0 mi West 3.5 mph - N/A   Clear
11:17 PM 66.9 °F - 66.0 °F 97% 30.01 in 3.0 mi Calm Calm - N/A   Clear
11:22 PM 66.9 °F - 66.0 °F 97% 30.01 in 1.5 mi Calm Calm - N/A   Clear
11:39 PM 68.0 °F - 66.0 °F 93% 30.01 in 3.0 mi Calm Calm - N/A   Scattered Clouds
11:54 PM 68.0 °F - 66.0 °F 93% 29.99 in 6.0 mi Calm Calm - N/A   Partly Cloudy